Location: Haulchin
(50.3172°N, 3.4360°E)
Time: 02:52:40
(UTC+00:00)

Cosmos 841 Rocket - Pass Details

Date: 23 May 2024
Orbit: 744 x 770 km, 74.0° (Epoch: 21 June)

Event Time Altitude Azimuth Distance (km) Brightness Sun altitude
Rises 02:05:48 0° 328° (NNW) 3,233 7.1 -12.3°
Reaches altitude 10° 02:08:24 10° 319° (NW) 2,307 6.2 -12.1°
Maximum altitude 02:12:55 30° 259° (W) 1,343 4.4 -11.7°
Enters shadow 02:16:25 15° 206° (SSW) 1,979 5.0 -11.4°
